CW4957 Weather Reports


time (UTC)temp
C
wind
direction
speed
KPH
gust
KPH
rain 1hr
cm
rain 24hr
cm
rain mn
cm
humidity
%
barometer
mb
20260507113330 9 211 1.6 4.8 0.00 0.46 0.00 80 1008.0
20260507112804 9 349 1.6 4.8 0.00 0.46 0.00 81 1008.0
20260507112257 9 202 0.0 6.4 0.00 0.46 0.00 81 1008.0
20260507111811 9 202 1.6 8.0 0.00 0.46 0.00 81 1008.0
20260507111253 9 221 3.2 8.0 0.00 0.46 0.00 82 1008.0
20260507110827 8 355 0.0 3.2 0.00 0.46 0.00 83 1007.8
20260507110258 8 355 0.0 4.8 0.00 0.46 0.00 84 1007.8
20260507105806 8 325 0.0 4.8 0.00 0.46 0.00 84 1007.8
20260507105257 8 236 0.0 4.8 0.00 0.46 0.00 84 1007.5
20260507104814 8 217 0.0 0.0 0.00 0.46 0.00 84 1007.5
20260507104312 8 217 0.0 3.2 0.00 0.46 0.00 84 1007.5
20260507103814 8 217 0.0 3.2 0.00 0.46 0.00 84 1007.4
20260507103306 8 262 1.6 3.2 0.00 0.46 0.00 85 1007.4
20260507102825 8 344 0.0 1.6 0.00 0.46 0.00 85 1007.4
20260507102327 8 344 0.0 1.6 0.00 0.46 0.00 85 1007.2
20260507101759 8 344 0.0 1.6 0.00 0.46 0.00 85 1007.2
20260507101310 8 344 0.0 1.6 0.00 0.46 0.00 85 1007.2
20260507100804 8 344 0.0 1.6 0.00 0.46 0.00 84 1006.9
20260507100258 8 344 0.0 3.2 0.00 0.46 0.00 84 1006.9
20260507095759 8 344 0.0 3.2 0.00 0.46 0.00 84 1006.9
20260507095256 8 344 0.0 1.6 0.00 0.46 0.00 85 1007.1
20260507094830 9 344 0.0 1.6 0.00 0.46 0.00 84 1007.1
20260507094308 9 32 0.0 1.6 0.00 0.46 0.00 84 1007.1
20260507093804 9 32 0.0 3.2 0.00 0.46 0.00 84 1007.1
20260507093301 9 32 1.6 3.2 0.00 0.46 0.00 85 1007.1
20260507092756 9 32 1.6 3.2 0.00 0.46 0.00 85 1007.1
20260507092309 9 32 0.0 4.8 0.00 0.46 0.00 86 1007.4
20260507091804 9 32 0.0 4.8 0.00 0.46 0.00 86 1007.4
20260507091301 9 173 1.6 4.8 0.00 0.46 0.00 87 1007.4
20260507090816 9 173 0.0 1.6 0.00 0.46 0.00 87 1007.5
20260507090303 9 173 0.0 3.2 0.00 0.46 0.00 87 1007.5
20260507085805 9 263 0.0 1.6 0.00 0.46 0.00 87 1007.5
20260507085318 9 264 0.0 3.2 0.00 0.46 0.00 87 1007.4
20260507084823 9 264 0.0 3.2 0.00 0.46 0.00 87 1007.4
20260507084258 9 263 0.0 3.2 0.00 0.46 0.00 87 1007.4
20260507083756 9 234 0.0 0.0 0.00 0.46 0.00 87 1007.7
20260507083313 9 233 0.0 0.0 0.00 0.46 0.00 87 1007.7
20260507082804 9 234 0.0 1.6 0.00 0.46 0.00 87 1007.7
20260507082257 10 233 0.0 1.6 0.00 0.46 0.00 87 1007.7
20260507081755 10 233 0.0 1.6 0.00 0.46 0.00 87 1007.7
20260507081333 10 234 0.0 1.6 0.00 0.46 0.00 88 1007.7
20260507080824 10 233 0.0 1.6 0.00 0.46 0.00 88 1007.8
20260507080314 10 234 0.0 4.8 0.00 0.46 0.00 88 1007.8
20260507075811 10 233 1.6 4.8 0.00 0.46 0.00 88 1007.8
20260507075325 10 329 0.0 0.0 0.00 0.46 0.00 88 1007.3
20260507074821 10 329 0.0 0.0 0.00 0.46 0.00 88 1007.3
20260507074314 10 329 0.0 3.2 0.00 0.46 0.00 88 1007.3
20260507073827 10 329 0.0 3.2 0.00 0.46 0.00 88 1006.8
20260507073304 10 329 0.0 1.6 0.00 0.46 0.00 88 1006.8
20260507072757 10 329 0.0 1.6 0.00 0.46 0.00 88 1006.8
20260507072308 10 329 0.0 3.2 0.00 0.46 0.00 88 1006.9
20260507071804 10 329 0.0 3.2 0.00 0.46 0.00 88 1006.9
20260507071301 10 329 0.0 1.6 0.00 0.46 0.00 89 1006.9
20260507070757 10 329 0.0 0.0 0.00 0.46 0.00 89 1007.1
20260507070307 10 329 0.0 0.0 0.00 0.46 0.00 89 1007.1
20260507065829 10 329 0.0 0.0 0.00 0.46 0.00 89 1007.1
20260507065321 10 329 0.0 0.0 0.00 0.46 0.00 90 1007.0
20260507064753 10 329 0.0 1.6 0.00 0.46 0.00 90 1007.0
20260507064308 10 329 0.0 1.6 0.00 0.46 0.00 90 1007.0
20260507063804 10 329 0.0 1.6 0.00 0.46 0.00 90 1006.8
20260507063312 10 329 0.0 3.2 0.00 0.46 0.00 91 1006.8
20260507062806 10 329 0.0 3.2 0.00 0.46 0.00 91 1006.8
20260507062306 10 338 0.0 1.6 0.00 0.46 0.00 91 1006.7
20260507061759 10 338 0.0 1.6 0.00 0.46 0.00 91 1006.7
20260507061313 10 338 0.0 1.6 0.00 0.46 0.00 91 1006.7
20260507060802 10 338 0.0 1.6 0.00 0.46 0.00 91 1006.8
20260507060310 10 338 0.0 1.6 0.00 0.46 0.00 91 1006.8
20260507055801 10 338 0.0 1.6 0.00 0.46 0.00 92 1006.8
20260507055300 10 338 0.0 1.6 0.00 0.46 0.00 92 1006.8
20260507054756 10 338 0.0 1.6 0.00 0.46 0.00 92 1006.8
20260507054308 10 338 0.0 0.0 0.00 0.46 0.00 92 1006.8
20260507053824 10 338 0.0 0.0 0.00 0.46 0.00 92 1007.4
20260507053259 10 338 0.0 0.0 0.00 0.46 0.00 92 1007.4
20260507052755 10 338 0.0 0.0 0.00 0.46 0.00 92 1007.4
20260507052306 10 338 0.0 0.0 0.00 0.46 0.00 92 1007.4
20260507051759 10 338 0.0 0.0 0.00 0.46 0.00 92 1007.4
20260507051257 10 338 0.0 0.0 0.00 0.46 0.00 92 1007.4
20260507050814 10 338 0.0 0.0 0.00 0.46 0.00 92 1007.8
20260507050323 10 338 0.0 0.0 0.00 0.46 0.00 92 1007.8
20260507045758 10 338 0.0 1.6 0.00 0.46 0.00 92 1007.8
20260507045252 10 338 0.0 1.6 0.00 0.46 0.00 91 1007.6
20260507044755 10 339 0.0 0.0 0.00 0.46 0.00 91 1007.6
20260507044255 10 338 0.0 0.0 0.00 0.46 0.00 91 1007.6
20260507043757 10 338 0.0 0.0 0.00 0.46 0.00 91 1007.3
20260507043314 10 339 0.0 0.0 0.00 0.46 0.00 91 1007.3
20260507042813 10 339 0.0 1.6 0.00 0.46 0.00 91 1007.3
20260507042254 10 339 0.0 1.6 0.00 0.46 0.00 91 1007.1
20260507041802 10 339 0.0 0.0 0.00 0.46 0.00 92 1007.1
20260507041259 10 339 0.0 0.0 0.00 0.46 0.00 91 1007.1
20260507040813 10 339 0.0 0.0 0.00 0.46 0.00 91 1007.0
20260507040301 11 339 0.0 0.0 0.00 0.46 0.00 91 1007.0
20260507035817 11 339 0.0 0.0 0.00 0.46 0.46 91 1007.0
20260507035311 11 339 0.0 1.6 0.00 0.46 0.46 91 1007.2
20260507034805 11 339 0.0 1.6 0.00 0.46 0.46 91 1007.2
20260507034303 11 339 0.0 1.6 0.00 0.46 0.46 91 1007.2
20260507033800 11 339 0.0 1.6 0.00 0.46 0.46 91 1007.3
20260507033330 11 339 0.0 0.0 0.00 0.46 0.46 91 1007.3
20260507032805 11 339 0.0 1.6 0.00 0.46 0.46 91 1007.3
20260507032323 11 339 0.0 1.6 0.00 0.46 0.46 91 1007.2
20260507031821 11 339 0.0 0.0 0.00 0.46 0.46 91 1007.2
20260507031315 11 339 0.0 0.0 0.00 0.46 0.46 91 1007.2
20260507030805 11 339 0.0 1.6 0.00 0.46 0.46 91 1007.1
20260507030255 11 339 0.0 1.6 0.00 0.46 0.46 92 1007.1
20260507025825 12 339 0.0 1.6 0.00 0.46 0.46 92 1007.1
20260507025302 12 339 0.0 3.2 0.00 0.46 0.46 92 1006.8
20260507024755 12 339 0.0 3.2 0.00 0.46 0.46 92 1006.8
20260507024256 12 218 0.0 1.6 0.00 0.46 0.46 92 1006.8
20260507023810 12 218 0.0 1.6 0.00 0.46 0.46 92 1006.8
20260507023304 12 218 0.0 1.6 0.00 0.46 0.46 92 1006.8
20260507022756 12 218 0.0 0.0 0.00 0.46 0.46 92 1006.8
20260507022308 12 218 0.0 0.0 0.00 0.46 0.46 91 1006.8
20260507021823 12 218 0.0 0.0 0.00 0.46 0.46 91 1006.8
20260507021256 12 218 0.0 1.6 0.00 0.46 0.46 91 1006.8
20260507020757 12 218 0.0 1.6 0.00 0.46 0.46 91 1006.5
20260507020313 12 217 0.0 1.6 0.00 0.46 0.46 91 1006.5
20260507015807 12 217 0.0 3.2 0.00 0.46 0.46 91 1006.5
20260507015306 12 360 0.0 1.6 0.00 0.46 0.46 91 1006.6
20260507014803 12 212 0.0 1.6 0.00 0.46 0.46 91 1006.6
20260507014256 12 212 0.0 9.7 0.00 0.46 0.46 91 1006.6
20260507013809 13 212 3.2 9.7 0.00 0.46 0.46 91 1006.1
20260507013304 13 225 3.2 6.4 0.00 0.46 0.46 92 1006.1
20260507012833 13 360 3.2 6.4 0.00 0.46 0.46 92 1006.1
20260507012310 13 360 0.0 1.6 0.00 0.46 0.46 93 1005.5
20260507011805 13 360 0.0 3.2 0.00 0.46 0.46 93 1005.5
20260507011301 13 360 1.6 3.2 0.03 0.46 0.46 93 1005.5
20260507010820 14 360 0.0 3.2 0.03 0.46 0.46 93 1005.5
20260507010309 14 360 0.0 6.4 0.13 0.46 0.46 93 1005.5
20260507005805 14 360 1.6 6.4 0.15 0.46 0.46 93 1005.5
20260507005259 15 229 1.6 6.4 0.15 0.46 0.46 93 1005.3
20260507004808 15 221 0.0 3.2 0.15 0.46 0.46 94 1005.3
20260507004300 15 221 0.0 1.6 0.15 0.46 0.46 94 1005.3
20260507003756 15 221 0.0 1.6 0.15 0.46 0.46 94 1005.0
20260507003252 15 221 0.0 1.6 0.15 0.46 0.46 94 1005.0
20260507002807 15 221 0.0 4.8 0.15 0.46 0.46 94 1005.0
20260507002301 15 221 1.6 4.8 0.15 0.46 0.46 94 1004.8
20260507001814 15 5 1.6 6.4 0.15 0.46 0.46 95 1004.8
20260507001314 15 232 1.6 8.0 0.13 0.43 0.43 95 1004.8
20260507000827 15 224 4.8 8.0 0.13 0.43 0.43 95 1004.2
20260507000259 15 275 3.2 8.0 0.00 0.30 0.30 94 1004.2
20260506235832 15 117 1.6 8.0 0.00 0.36 0.30 94 1004.2
20260506235306 15 311 1.6 8.0 0.00 0.36 0.30 94 1003.9
20260506234802 15 233 1.6 8.0 0.00 0.36 0.30 94 1003.9
20260506234301 15 312 1.6 6.4 0.00 0.36 0.30 94 1003.9
20260506233808 15 41 0.0 6.4 0.00 0.36 0.30 94 1003.8
20260506233258 15 32 1.6 6.4 0.00 0.36 0.30 94 1003.8
20260506232808 15 355 1.6 6.4 0.00 0.36 0.30 94 1003.8
20260506232311 15 260 1.6 6.4 0.00 0.36 0.30 94 1003.7
20260506231804 15 299 1.6 6.4 0.00 0.36 0.30 94 1003.7
20260506231300 15 290 3.2 6.4 0.00 0.36 0.30 94 1003.7
20260506230814 15 187 0.0 4.8 0.00 0.36 0.30 94 1003.7
20260506230325 15 63 0.0 3.2 0.00 0.36 0.30 94 1003.7
20260506225758 15 298 1.6 3.2 0.00 0.36 0.30 94 1003.7
20260506225257 15 298 0.0 12.9 0.00 0.36 0.30 94 1003.7
20260506224753 15 90 1.6 6.4 0.00 0.36 0.30 94 1003.7
20260506224310 15 257 1.6 6.4 0.00 0.36 0.30 94 1003.7
20260506223806 15 256 1.6 11.3 0.00 0.36 0.30 94 1003.7
20260506223300 15 222 3.2 11.3 0.00 0.36 0.30 94 1003.7
20260506222758 15 92 0.0 6.4 0.00 0.36 0.30 94 1003.7
20260506222254 15 327 1.6 6.4 0.00 0.36 0.30 94 1003.7
20260506221826 15 5 0.0 4.8 0.00 0.36 0.30 94 1003.7
20260506221256 15 360 1.6 12.9 0.00 0.36 0.30 94 1003.7
20260506220810 15 17 4.8 12.9 0.00 0.36 0.30 94 1003.7
20260506220302 15 287 0.0 4.8 0.00 0.36 0.30 94 1003.7
20260506215757 15 123 1.6 11.3 0.00 0.36 0.30 94 1003.7
20260506215312 15 49 3.2 11.3 0.00 0.36 0.30 94 1003.7
20260506214805 15 360 1.6 6.4 0.00 0.36 0.30 94 1003.7
20260506214301 15 360 3.2 8.0 0.00 0.36 0.30 94 1003.7
20260506213800 15 360 1.6 9.7 0.00 0.36 0.30 93 1003.7
20260506213311 15 360 4.8 9.7 0.00 0.36 0.30 93 1003.7
20260506212807 15 360 1.6 4.8 0.00 0.36 0.30 93 1003.7
20260506212307 15 360 1.6 9.7 0.00 0.36 0.30 93 1003.7
20260506211808 15 360 1.6 9.7 0.00 0.36 0.30 93 1003.7
20260506211303 15 360 1.6 11.3 0.00 0.36 0.30 93 1003.7
20260506210800 15 360 3.2 9.7 0.00 0.36 0.30 93 1003.7
20260506210307 15 360 3.2 9.7 0.00 0.36 0.30 93 1003.7
20260506205823 15 360 1.6 8.0 0.03 0.36 0.30 93 1003.7
20260506205257 15 360 1.6 6.4 0.03 0.36 0.30 93 1003.8
20260506204807 15 360 3.2 6.4 0.03 0.36 0.30 93 1003.8
20260506204303 15 360 0.0 6.4 0.03 0.36 0.30 93 1003.8
20260506203758 15 360 1.6 4.8 0.03 0.36 0.30 93 1004.1
20260506203257 15 360 0.0 9.7 0.03 0.36 0.30 92 1004.1
20260506202814 15 360 1.6 6.4 0.03 0.36 0.30 92 1004.1
20260506202310 15 360 1.6 6.4 0.03 0.36 0.30 92 1004.2
20260506201804 15 360 1.6 8.0 0.05 0.36 0.30 92 1004.2
20260506201300 15 360 1.6 6.4 0.05 0.36 0.30 92 1004.2
20260506200758 15 360 3.2 14.5 0.05 0.36 0.30 92 1004.5
20260506200306 16 360 3.2 14.5 0.03 0.33 0.28 92 1004.5
20260506195757 16 360 1.6 8.0 0.03 0.33 0.28 92 1004.5
20260506195310 16 360 1.6 11.3 0.03 0.33 0.28 91 1004.7
20260506194804 16 360 3.2 11.3 0.05 0.33 0.28 92 1004.7
20260506194258 16 360 3.2 6.4 0.05 0.33 0.28 92 1004.7
20260506193813 16 360 1.6 6.4 0.05 0.33 0.28 92 1004.7
20260506193300 16 360 1.6 8.0 0.05 0.33 0.28 91 1004.7
20260506192802 16 360 1.6 8.0 0.05 0.33 0.28 91 1004.7
20260506192314 16 360 1.6 8.0 0.05 0.30 0.25 91 1004.8
20260506191812 16 360 1.6 4.8 0.05 0.30 0.25 91 1004.8
20260506191301 16 360 1.6 4.8 0.05 0.30 0.25 91 1004.8
20260506190834 16 360 1.6 4.8 0.05 0.30 0.25 91 1004.7
20260506190300 16 360 3.2 4.8 0.08 0.30 0.25 90 1004.7
20260506185756 16 360 3.2 6.4 0.08 0.30 0.25 90 1004.7
20260506185312 16 360 0.0 8.0 0.08 0.30 0.25 90 1004.8
20260506184805 16 360 3.2 8.0 0.05 0.28 0.23 90 1004.8
20260506184259 16 360 1.6 6.4 0.08 0.28 0.23 90 1004.8
20260506183814 16 360 1.6 3.2 0.08 0.28 0.23 89 1005.1
20260506183307 17 360 1.6 3.2 0.10 0.28 0.23 89 1005.1
20260506182758 17 360 1.6 3.2 0.15 0.28 0.23 89 1005.1
20260506182321 17 360 1.6 4.8 0.15 0.25 0.20 89 1005.2
20260506181800 17 360 1.6 4.8 0.18 0.25 0.20 89 1005.2
20260506181313 17 360 1.6 4.8 0.18 0.25 0.20 89 1005.2
20260506180808 17 360 1.6 3.2 0.20 0.25 0.20 88 1005.2
20260506180255 17 360 0.0 3.2 0.18 0.23 0.18 88 1005.2
20260506175810 17 360 0.0 1.6 0.18 0.23 0.18 87 1005.2
20260506175306 17 360 0.0 1.6 0.18 0.23 0.18 87 1005.4
20260506174759 17 360 0.0 1.6 0.18 0.23 0.18 87 1005.4
20260506174330 17 360 0.0 1.6 0.15 0.20 0.15 86 1005.4
20260506173823 17 360 0.0 1.6 0.15 0.20 0.15 85 1005.8
20260506173259 17 360 0.0 1.6 0.13 0.18 0.13 85 1005.8
20260506172757 17 360 0.0 1.6 0.08 0.13 0.08 85 1005.8
20260506172312 17 360 0.0 3.2 0.05 0.10 0.05 85 1006.1
20260506171811 17 360 0.0 3.2 0.03 0.08 0.03 84 1006.1
20260506171305 17 360 0.0 1.6 0.03 0.08 0.03 83 1006.1
20260506170758 17 360 0.0 3.2 0.00 0.05 0.00 83 1006.2
20260506170308 17 360 0.0 4.8 0.00 0.05 0.00 82 1006.2
20260506165759 17 360 1.6 4.8 0.00 0.05 0.00 82 1006.2
20260506165256 17 360 0.0 3.2 0.00 0.05 0.00 81 1006.1
20260506164809 17 360 0.0 9.7 0.00 0.05 0.00 81 1006.1
20260506164304 17 360 1.6 9.7 0.00 0.05 0.00 81 1006.1
20260506163801 17 360 1.6 8.0 0.00 0.05 0.00 80 1006.2
20260506163259 17 360 1.6 12.9 0.00 0.05 0.00 80 1006.2
20260506162756 17 360 1.6 6.4 0.00 0.05 0.00 80 1006.2
20260506162307 18 360 1.6 6.4 0.00 0.05 0.00 80 1006.3
20260506161802 18 360 0.0 11.3 0.00 0.05 0.00 79 1006.3
20260506161300 18 360 3.2 11.3 0.00 0.05 0.00 79 1006.3
20260506160756 18 360 1.6 8.0 0.00 0.05 0.00 79 1006.3
20260506160303 18 360 1.6 6.4 0.00 0.05 0.00 79 1006.3
20260506155756 17 360 3.2 11.3 0.00 0.05 0.00 79 1006.3
20260506155307 17 360 3.2 11.3 0.00 0.05 0.00 79 1006.8
20260506154811 17 360 3.2 8.0 0.00 0.05 0.00 79 1006.8
20260506154307 17 360 1.6 8.0 0.00 0.05 0.00 79 1006.8
20260506153802 17 360 1.6 8.0 0.00 0.05 0.00 80 1006.9
20260506153301 17 360 3.2 8.0 0.00 0.05 0.00 80 1006.9
20260506152756 17 360 1.6 8.0 0.00 0.05 0.00 80 1006.9
20260506152307 17 360 1.6 6.4 0.00 0.05 0.00 80 1007.4
20260506151759 17 360 1.6 9.7 0.00 0.05 0.00 80 1007.4
20260506151312 17 360 4.8 9.7 0.00 0.05 0.00 80 1007.4
20260506150807 17 360 3.2 8.0 0.00 0.05 0.00 81 1007.2
20260506150304 17 360 3.2 8.0 0.00 0.05 0.00 81 1007.2
20260506145759 17 360 3.2 8.0 0.00 0.05 0.00 81 1007.2
20260506145313 17 360 1.6 11.3 0.00 0.05 0.00 80 1007.3
20260506144808 17 360 3.2 11.3 0.00 0.05 0.00 80 1007.3
20260506144301 17 360 1.6 4.8 0.00 0.05 0.00 80 1007.3
20260506143756 17 360 1.6 8.0 0.00 0.05 0.00 80 1007.4
20260506143256 17 360 3.2 9.7 0.00 0.05 0.00 80 1007.4
20260506142756 17 360 3.2 9.7 0.00 0.05 0.00 81 1007.4
20260506142306 17 360 3.2 9.7 0.00 0.05 0.00 81 1007.1
20260506141759 17 360 3.2 9.7 0.00 0.05 0.00 81 1007.1
20260506141259 17 360 3.2 9.7 0.00 0.05 0.00 81 1007.1
20260506140819 17 360 3.2 14.5 0.00 0.05 0.00 82 1007.3
20260506140255 17 360 4.8 14.5 0.00 0.05 0.00 82 1007.3
20260506135812 16 360 4.8 9.7 0.00 0.05 0.00 82 1007.3
20260506135306 16 360 3.2 9.7 0.00 0.05 0.00 83 1007.0
20260506134801 16 360 3.2 6.4 0.00 0.05 0.00 84 1007.0
20260506134254 16 360 1.6 9.7 0.00 0.05 0.00 84 1007.0
20260506133812 16 360 3.2 9.7 0.00 0.05 0.00 84 1006.9
20260506133304 16 360 1.6 9.7 0.00 0.05 0.00 84 1006.9
20260506132822 16 360 1.6 9.7 0.00 0.05 0.00 85 1006.9
20260506132256 16 360 1.6 4.8 0.00 0.05 0.00 85 1007.3
20260506131810 16 360 3.2 8.0 0.00 0.05 0.00 85 1007.3
20260506131302 15 360 3.2 8.0 0.00 0.05 0.00 85 1007.3
20260506130804 15 360 1.6 6.4 0.00 0.05 0.00 86 1007.5
20260506130255 15 360 1.6 6.4 0.00 0.05 0.00 86 1007.5
20260506125812 15 360 3.2 6.4 0.00 0.05 0.00 86 1007.5
20260506125309 15 360 1.6 6.4 0.00 0.05 0.00 86 1007.8
20260506124805 15 360 1.6 6.4 0.00 0.05 0.00 86 1007.8
20260506124253 15 360 1.6 3.2 0.00 0.05 0.00 86 1007.8
20260506123811 15 360 1.6 6.4 0.00 0.05 0.00 86 1007.8
20260506123309 15 360 1.6 9.7 0.00 0.05 0.00 86 1007.8
20260506122809 15 360 1.6 9.7 0.00 0.05 0.00 87 1007.8
20260506122306 15 360 1.6 8.0 0.00 0.05 0.00 87 1007.8
20260506121759 15 360 3.2 8.0 0.00 0.05 0.00 87 1007.8
20260506121255 15 360 1.6 8.0 0.00 0.05 0.00 87 1007.8
20260506120812 15 360 1.6 8.0 0.00 0.05 0.00 87 1007.8
20260506120301 15 360 1.6 9.7 0.00 0.05 0.00 88 1007.8
20260506115756 15 360 1.6 9.7 0.00 0.05 0.00 88 1007.8
20260506115306 14 360 1.6 6.4 0.00 0.05 0.00 88 1007.8
20260506114802 14 360 1.6 6.4 0.00 0.05 0.00 88 1007.8
20260506114258 14 360 0.0 4.8 0.00 0.05 0.00 88 1007.8
20260506113754 14 360 0.0 4.8 0.00 0.05 0.00 88 1007.8